Regional Weather Roundup
Issued by NWS

Home | Current Version | Previous Version | Text Only | Print | Product List | Glossary Off
Versions: 1 2 3 4 5 6 7 8 9 10 11 12 13 14 15 16 17 18 19 20 21 22 23 24 25 26 27 28 29 30 31 32 33 34 35 36 37 38 39 40 41 42 43 44 45 46 47 48 49 50

000
ASUS43 KDTX 030401
RWRMI
MICHIGAN HOURLY REGIONAL WEATHER ROUNDUP
NATIONAL WEATHER SERVICE DETROIT/PONTIAC MI
1200 AM EDT FRI JUL 03 2015

NOTE: "FAIR" INDICATES FEW OR NO CLOUDS BELOW 12,000 FEET WITH NO
SIGNIFICANT WEATHER AND/OR OBSTRUCTION TO VISIBILITY.

MIZ047>049-052>055-059>063-066>070-074>076-081>083-030500-
SOUTHEAST LOWER MICHIGAN

CITY           SKY/WX    TMP DP  RH WIND       PRES   REMARKS
ADRIAN         CLOUDY    62  57  83 E5        30.01S
ALMA           CLEAR     53  49  87 CALM      30.03S
ANN ARBOR      CLEAR     53  51  93 CALM      30.01R
BAD AXE        CLEAR     46  43  88 CALM      30.02F
CARO           CLEAR     49  48  95 CALM      30.02S
DETROIT CITY   CLEAR     60  50  69 E5        30.01S
DETROIT        PTCLDY    62  49  62 E3        30.02R
FLINT          CLEAR     60  48  64 E3        30.01F
GROSSE ILE     CLEAR     61  54  77 E7        30.00S
HILLSDALE      PTCLDY    57  56  97 E3        30.00F
HOWELL         CLEAR     58  48  69 CALM      30.01S

CITY           SKY/WX    TMP DP  RH WIND       PRES   REMARKS
JACKSON        CLEAR     59  52  77 NE6       30.01S
LAMBERTVILLE   PTCLDY    61  58  89 CALM      30.00S
LANSING        CLEAR     57  48  72 NE5       30.02S
LAPEER         FAIR      49  47  92 CALM      30.02F
MONROE         CLEAR     60  52  75 NE3       30.00S
MT. CLEMENS    CLEAR     56  49  79 N3        30.00R
PONTIAC        CLEAR     59  48  67 E5        30.00F
PORT HOPE        N/A     50  46  86 CALM      30.01F
PORT HURON     CLEAR     52  50  93 CALM      30.02S
TRI CITIES     CLEAR     59  46  62 N3        30.03S
MIDLAND        FAIR      50  47  91 CALM      30.02S
TROY           CLEAR     62  47  59 NE6       30.03S
SAGINAW HB     CLEAR     54  45  71 CALM      30.02S
$$
MIZ043>046-050>051-056>058-064>065-071>073-077>080-030500-
SOUTHWEST LOWER MICHIGAN

CITY           SKY/WX    TMP DP  RH WIND       PRES   REMARKS
BATTLE CREEK   CLEAR     62  52  69 NE6       30.01S
BENTON HARBOR  PTCLDY    54  50  86 CALM      29.98S
BIG RAPIDS     CLEAR     55  49  80 CALM      30.02S
COLDWATER      CLEAR     59  53  79 NE5       29.99S
FREMONT        FAIR      56  54  91 CALM      30.00F
HOLLAND        CLEAR     61  52  72 E3        30.01S
GRAND RAPIDS   CLEAR     59  50  72 E5        30.01S
IONIA          FAIR      58  48  71 E3        30.01S
KALAMAZOO      CLEAR     62  52  69 NE5       30.00F
LUDINGTON      CLEAR     56  51  85 CALM      30.01F
MARSHALL       CLEAR     60  52  75 CALM      30.00S
MOUNT PLEASANT CLEAR     55  50  81 CALM      30.02S
MUSKEGON       CLEAR     60  53  77 CALM      30.01R
SOUTH HAVEN    CLEAR     57  52  84 CALM      29.99S
$$
MIZ016>042-030500-
NORTHERN LOWER MICHIGAN

CITY           SKY/WX    TMP DP  RH WIND       PRES   REMARKS
ALPENA         CLEAR     53  44  71 CALM      30.02F
BEAVER ISLAND  CLEAR     50  45  81 CALM      29.99F
BELLAIRE       CLEAR     51  49  92 CALM      30.01F
CADILLAC       CLEAR     51  47  87 CALM      30.03S
CHARLEVOIX     CLEAR     55  47  76 SE3       30.03F
FRANKFORT      CLEAR     53  44  73 CALM      30.01S
GAYLORD        CLEAR     56  50  80 S3        30.03F
GRAYLING       CLEAR     47  45  93 CALM      30.04S
HARBOR SPRINGS CLEAR     54  52  93 CALM      30.01S
HOUGHTON LAKE  CLEAR     50  47  89 E3        30.04F
MANISTEE       CLEAR    N/A N/A N/A E3        30.01F
OSCODA         CLEAR     48  43  82 CALM      30.02F
PELLSTON       CLEAR     52  50  93 CALM      30.00F
TRAVERSE CITY  CLEAR     55  47  74 CALM      30.00S
$$
MIZ007>008-015-030500-
EASTERN UPPER MICHIGAN

CITY           SKY/WX    TMP DP  RH WIND       PRES   REMARKS
KINROSS        PTCLDY    57  48  72 SW5       29.99F
MACKINAC ISLAN CLEAR     58  51  78 W6        29.99F
NEWBERRY       MOCLDY    56  46  68 SW6       29.98F
S. S. MARIE    MOCLDY    58  47  66 CALM      29.98F
MUNISING         N/A     63  46  54 SW9       29.95F
$$
MIZ004>006-011>014-085-030500-
CENTRAL UPPER MICHIGAN

CITY           SKY/WX    TMP DP  RH WIND       PRES   REMARKS
MANISTIQUE     CLEAR     53  46  77 SW3       29.98F
ESCANABA       CLEAR     55  52  88 W3        29.98F
MENOMINEE      CLEAR     55  48  76 CALM      29.99F
SAWYER-GWINN   CLEAR     59  48  67 S7        29.97F
$$
MIZ001>003-009>011-084-030500-
WESTERN UPPER MICHIGAN

CITY           SKY/WX    TMP DP  RH WIND       PRES   REMARKS
IRON MOUNTAIN  CLEAR     59  49  69 SE6       29.98F
HOUGHTON       CLOUDY    65  55  70 S3        29.91F
COPPER HARBOR    N/A     64  49  57 SW9       29.89F
IRONWOOD       CLEAR     64  55  72 SW6       29.93F
$$

ABBREVIATIONS USED IN REMARKS
   TC - TEMPERATURE IN CELSIUS
  WCI - WIND CHILL INDEX
   HX - HEAT INDEX
  VSB - VISIBILITY



USA.gov is the U.S. government's official web portal to all federal, state and local government web resources and services.